Погода в Троицке

Погода в Троицке : погода сейчас, прогноз погоды и архив. Всё, что Вы хотите узнать о погоде в Троицке!

Хотите узнать прогноз погоды в Троицке? Тогда Вам сюда: Погода в Троицке

Поиск расширенной информации на нашем сайте:

Другие новости

Новости СМИ2

Главная страница сайта

Новости сайта

03.07.2017

Напоминаем, что на нашем специализированном сайте Метеоцентр.Азия вы можете получить высокодетализированные автоматические прогнозы погоды по пунктам России, СНГ и мира в авиационном формате (включающие направление и скорость ветра, видимость, явления погоды, количество и форму облачности, нижнюю и верхнюю границу облачности).


Погода в Троицке - сегодня

Время (UTC), дата Ветер
(°,м/с) 
Видим.   Явления Облачность Т
(°С)
Тd
(°С)
f(%) Тe
(°С)
Pmin
(гПа)
dP
(гПа)
Po
(мм)
O2
(г/м3)
Тmin Tmax R s Состояние
почвы
06 16.08.17 070 (В) 10 км    3/1 1000 м верхняя 
[Cu hum|Ci fib]
+25.4 +11.6 42 +29  1021  -0.3  749  274           
09 16.08.17 280 (З) 10 км    8/6 600 м верхняя 
[Cu med, cong|Ci sp]
+27.3 +9.1 32 +27  1020.2  -0.7  749  273           
12 16.08.17 360 (С) 4{11}  10 км    8/4 600 м кучево-дожд., средняя, верхняя 
[Cb cap|Ac cuf|Ci sp]
+23.9 +11.4 45 +27  1020.7  0.3  749  275           
15 16.08.17 350 (С) 10 км    8/5 600 м кучево-дожд., средняя, верхняя 
[Cb cap|Ac cuf|Ci fib]
+22.3 +13.5 57 +29  1021.5  0.7  749  277    +28.1       
18 16.08.17 360 (С) 10 км    9/9 600 м 
[Sc]
+19.8 +13.5 67 +27  1022.4  0.7  750  279           
21 16.08.17 350 (С) 10 км    3/3 600 м 
[Sc]
+16.1 +12.8 81 +22  1023.6  0.8  751  283           
00 17.08.17 340 (С) 10 км    3/1 600 м верхняя 
[Sc|Ci fib]
+14 +11.9 87 +19  1024.1  0.3  751  285           
03 17.08.17 020 (С) 10 км    3/3 600 м верхняя 
[Sc|Ci fib]
+16.8 +13.2 79 +24  1025  1.2  752  283  +13.4        сухая 
06 17.08.17 040 (СВ) 10 км    1/1 1000 м 
[Cu hum]
+20.4 +11.1 55 +23  1025  0.2  752  280           
09 17.08.17 040 (СВ) 10 км    9/8 600 м средняя 
[Sc diur, vesp|Ac cuf]
+23.8 +9 39 +24  1024.2  -0.5  752  277           
12 17.08.17 020 (С) 10 км    8/3 600 м средняя, верхняя 
[Cu med, cong|Ac cuf|Ci fib]
+23.7 +8.6 38 +24  1023.3  -0.9  751  277           
15 17.08.17 020 (С) 10 км    4/3 600 м кучево-дожд., верхняя 
[Cb cap|Ci sp]
+20.3 +9.8 51 +21  1024  0.4  751  280    +24.6       
18 17.08.17 030 (СВ) 10 км    8/6 600 м верхняя 
[Sc|Ci sp]
+17.7 +10.1 61 +20  1025.3  1.1  752  283           
21 17.08.17 010 (С) 10 км    4/4 600 м 
[Sc]
+15.2 +8.5 64 +17  1025.9  0.4  752  286           
00 18.08.17 350 (С) 10 км    3/3 600 м 
[Sc]
+12.3 +7.7 73 +13  1026.6  0.5  753  289           
03 18.08.17 010 (С) 10 км    4/3 600 м верхняя 
[Sc|Ci fib]
+15 +8.7 66 +16  1027.2  0.8  753  286  +11        сухая 
06 18.08.17 070 (В) 10 км    ясно 
+20.1 +7.6 44 +20  1027.1  0.2  753  281           
09 18.08.17 050 (СВ) 3{12}  10 км    5/5 600 м 
[Cu med, cong]
+22.3 +5.5 34 +22  1026.3  -0.6  753  280           
12 18.08.17 010 (С) 10 км    3/3 600 м 
[Cu med, cong]
+22.2 +4.5 31 +22  1025.6  -0.7  752  280           
15 18.08.17 070 (В) 10 км    3/1 1000 м верхняя 
[Sc diur, vesp|Ci fib]
+19.4 +5.9 41 +20  1025.6  -0.2  752  282    +23.2       
18 18.08.17 100 (В) 10 км    3/0 верхняя 
[Ci fib]
+15.4 +6.4 55 +16  1026.8  0.9  753  286           
21 18.08.17 130 (ЮВ) 10 км    8/0 средняя 
[Ac trans]
+12.9 +7.3 69 +14  1026.9  -0.1  753  288           
00 19.08.17 тихо ()   10 км    3/3 600 м 
[Sc]
+9.4 +7.4 87 +9  1027.3  0.1  753  292           
03 19.08.17 160 (Ю) 10 км    4/4 600 м 
[Sc]
+13.9 +7.3 64 +14  1027.1  0.2  753  288  +8.9        сухая 
06 19.08.17 180 (Ю) 10 км    8/8 600 м верхняя 
[Sc|Ci fib]
+20.7 +5.5 37 +21  1025.7  -0.9  752  281           
Время (UTC), дата Ветер
(°,м/с) 
Видим.   Явления Облачность Т
(°С)
Тd
(°С)
f(%) Тe
(°С)
Pmin
(гПа)
dP
(гПа)
Po
(мм)
O2
(г/м3)
Тmin Tmax R s Состояние
почвы

Для получения пояснительной информации подведите курсор к названию столбца.

ПОГОДА в Троицке - архив

Всё, что Вы хотите узнать о погоде в Троицке - удобно и подробно!

Выберите нужную дату (начиная с 1 января 2015* года) и нажмите кнопку "Найти".
Будут отображены архивные сводки погоды по пункту Троицк, начиная с указанной даты.


Отображать данные в формате CSV (для использования в таблицах Excel)


Внимание! Наш архив погоды предназначен исключительно для личного некоммерческого использования в познавательных целях. Если Вам необходимы официальные справки о состоянии погоды (для производственных, юридических, коммерческих и т.п. целей), обращайтесь в органы Росгидромета.

*Примечание: данная дата относится к архиву по метеостанциям СССР (Россия, СНГ, Балтия).
Архив по метеостанциям Зарубежной Европы и Азии (кроме Китая) хранится 10 дней, по другим регионам земного шара (Китай, Африка, Америка, Австралия, Океания) - 1 день.

Троицк - район местоположения метеостанции


Название, широта, долгота, высота метеостанции:
Троицк 54.1°ш. 61.6°д. 192 м над ур. моря [Российская Федерация]

Дополнительная информация

В oтличие oт бoльшинства пoгoдных сайтoв мы публикуем пoдрoбную метеoинфoрмацию в детальнoм прoфессиoнальнoм фoрмате.

Характеристики температуры и влажнoсти вoздуха измеряются на высoте 2 м в тени вдали oт зданий и деревьев.
Скoрoсть ветра измеряется на высoте 10 м (на урoвне рoста челoвека скoрoсть ветра ниже в 1.5-2 раза). Если метеoстанция нахoдится в гoрoде или в лесу, тo скoрoсть ветра занижена на 2-4 м/с пo сравнению с oткрытым местoм. Скoрoсть ветра над акватoриями крупных рек и oзёр, а также на вершинах хoлмoв на 2-5 м/с выше, чем в oбычных услoвиях.
Атмoсфернoе давление в разных тoчках местнoсти мoжет значительнo oтличаться oт давления на метеoстанции, в зависимoсти oт услoвий рельефа (при пoдъёме на 10 м давление пoнижается примернo на 1 мм рт.ст.).